Location: Casaglia
(44.0333°N, 11.5167°E)
Time: 01:40:56
(UTC+00:00)

Envisat - Visible Passes

Search period start: 01 August 2021 00:00
Search period end: 11 August 2021 00:00
Orbit: 764 x 766 km, 98.2° (Epoch: 31 July)

Date Brightness Start Highest point End Pass type
(mag) Time Alt. Az. Time Alt. Az. Time Alt. Az.
01 Aug 6.0 03:08:27 10° ENE 03:10:32 12° E 03:12:36 10° ESE visible
03 Aug 5.6 03:32:18 10° NE 03:36:11 22° E 03:40:03 10° SE visible
06 Aug 5.7 03:21:16 10° NE 03:24:34 17° E 03:27:51 10° SE visible
09 Aug 5.9 03:10:29 10° ENE 03:12:57 13° E 03:15:24 10° ESE visible
